Preview of NWS' New Version of Forecast
This preview is not operational and should not be used for support decisions.

Regional Weather Roundup (RWR)

Issued by National Weather Service (NWS)

                            
000
ASUS45 KBOU 210910
RWRCO 

WEATHER ROUNDUP FOR COLORADO
NATIONAL WEATHER SERVICE DENVER/BOULDER CO
300 AM MDT SUN JUL 21 2019

NOTE: "FAIR" INDICATES FEW OR NO CLOUDS BELOW 12000 FEET WITH NO
SIGNIFICANT WEATHER AND/OR OBSTRUCTIONS TO VISIBILITY.

COZ001>005-013-030-031-211000-
...NORTHWEST COLORADO...
  
CITY           SKY/WX    TMP DP  RH WIND       PRES   REMARKS
CRAIG          FAIR      65  45  48 E5        30.15R                  
HAYDEN         FAIR      59  46  62 SE9       30.20R                  
MEEKER         FAIR      56  43  61 E5        30.17R                  
RANGELY        FAIR      56  34  42 CALM      30.08R                  
RABBIT EARS PA NOT AVBL                                               
STEAMBOAT SPGS FAIR      56  45  66 CALM      30.22R                  
WALDEN         NOT AVBL                                               
$$

COZ006>008-011-211000-
...WEST CENTRAL VALLEYS...
  
CITY           SKY/WX    TMP DP  RH WIND       PRES   REMARKS
GRAND JUNCTION FAIR      72  44  36 E9        30.04R                  
MONTROSE       FAIR      62  39  42 SE8       30.15R                  
EAGLE          FAIR      55  45  68 CALM      30.27R                  
RIFLE          FAIR      58  49  72 CALM      30.13R                  
DELTA          FAIR      65  44  45 CALM      30.10R                  
NUCLA          FAIR      63  27  25 E10       30.17R                  
$$

COZ017>023-064>068-211000-
...SOUTHWEST COLORADO...
  
CITY           SKY/WX    TMP DP  RH WIND       PRES   REMARKS
DURANGO        FAIR      60  40  47 N5        30.20R                  
CORTEZ         FAIR      54  34  46 E6        30.14S                  
PAGOSA SPRINGS FAIR      54  44  68 CALM      30.29F                  
TELLURIDE      FAIR      55  30  38 S7        30.43R                  
WOLF CREEK PAS NOT AVBL                                               
$$

COZ009-010-012-014-032>034-037-058>063-211000-
...CENTRAL COLORADO...
  
CITY           SKY/WX    TMP DP  RH WIND       PRES   REMARKS
ASPEN          FAIR      48  39  71 SW3       30.30R                  
BUENA VISTA    FAIR      51  46  81 NW6       30.35F                  
COPPER MTN     FAIR      54  36  50 S8G18     30.62S                  
BERTHOUD PASS  FAIR      45  32  61 NW21      30.64F                  
COTTONWOOD PAS NOT AVBL                                               
GUNNISON       FAIR      50  44  80 NE6       30.36R                  
GRANBY         NOT AVBL                                               
KREMMLING      FAIR      50  45  81 E5        30.31S                  
LEADVILLE      FAIR      43  41  93 E6        30.47F                  
SALIDA         FAIR      59  47  63 NW9       30.38F                  
SUNLIGHT       FAIR      52  32  46 S9        30.55R                  
WILKERSON PASS FAIR      48  37  66 W9        30.58S                  
$$

COZ069>075-211000-
...SAN LUIS VALLEY/SANGRE DE CRISTO MOUNTAINS...
  
CITY           SKY/WX    TMP DP  RH WIND       PRES   REMARKS
ALAMOSA        FAIR      53  44  71 MISG      30.30R                  
DEL NORTE      FAIR      53  45  72 W9        30.35S                  
LA VETA PASS   NOT AVBL                                               
SAGUACHE       FAIR      55  43  62 CALM      30.34S                  
$$

COZ035-036-038>040-211000-
...NORTHERN COLORADO FRONT RANGE...
  
CITY           SKY/WX    TMP DP  RH WIND       PRES   REMARKS
DENVER INTL AP MOCLDY    59  55  87 SE7       30.15S                  
AURORA         MOCLDY    59  56  88 SE7       30.16F                  
FRONT RANGE AP FAIR      63  56  79 S6        30.16S                  
ERIE MUNI ARPT FAIR      61  56  83 W5        30.20S                  
BOULDER MUN AP FAIR      61  57  88 CALM      30.17R                  
CENTENNIAL     MOCLDY    62  55  77 S6        30.18S                  
BROOMFIELD     FAIR      61  55  82 W7        30.19R                  
FORT COLLINS   FAIR      62  58  86 SW5       30.15S                  
LONGMONT       FAIR      63  57  83 W5        30.17S                  
$$

COZ041-046-047-076>085-087-088-211000-
...PIKES PEAK/PALMER DIVIDE AND SOUTHERN FOOTHILLS...
  
CITY           SKY/WX    TMP DP  RH WIND       PRES   REMARKS
COLO. SPRINGS  MOCLDY    61  57  87 NE8       30.21S                  
A. F. ACADEMY  FAIR      58  51  78 W8        30.21R                  
SCHRIEVER AFB  NOT AVBL                                               
CHEYENNE MTN   NOT AVBL                                               
ELLICOTT         N/A    N/A N/A N/A E8        30.18S                  
FALCON         FAIR      56  50  79 N5        30.26R                  
FORT CARSON    NOT AVBL                                               
LIMON          FAIR      61  59  93 CALM      30.16R                  
MONUMENT HILL  FAIR      52  50  93 E5        30.27S                  
CANON CITY     NOT AVBL                                               
WALSENBURG     NOT AVBL                                               
TRINIDAD       FAIR      65  50  58 NE5       30.18R                  
$$

COZ042>045-048>051-090-091-211000-
...NORTHEAST COLORADO...
  
CITY           SKY/WX    TMP DP  RH WIND       PRES   REMARKS
GREELEY ARPT   FAIR      60  57  89 NW3       30.12S                  
AKRON          MOCLDY    65  62  90 E5        30.10S                  
BURLINGTON     MOCLDY    67  63  87 W9        30.06F                  
WRAY           LGT RAIN  63  63 100 NE9       30.03F                  
YUMA           FAIR      64  61  88 N8        30.03F                  
STERLING       MOCLDY    66  61  82 NW5       30.08R                  
HOLYOKE        MOCLDY    63  61  94 N6        30.03F                  
FORT MORGAN    NOT AVBL                                               
$$

COZ086-089-092>099-211000-
...SOUTHEAST COLORADO...
  
CITY           SKY/WX    TMP DP  RH WIND       PRES   REMARKS
PUEBLO         FAIR      64  60  87 E3        30.11R                  
LA JUNTA       FAIR      69  62  78 S5        30.09R                  
LAMAR          FAIR      68  63  84 SW6       30.06R                  
SPRINGFIELD      N/A     66  60  81 N9        30.09R                  
$$